Time,TemperatureF,DewpointF,PressureIn,WindDirection,WindDirectionDegrees,WindSpeedMPH,WindSpeedGustMPH,Humidity,HourlyPrecipIn,Conditions,Clouds,dailyrainin,SoftwareType,DateUTC
2013-12-29 00:00:00,42.5,17.5,30.00,SW,233,0.0,0.0,36,0.00,,,0.00,VWS V15.00,2013-12-29 05:00:00,
2013-12-29 00:01:00,42.5,17.5,30.00,SW,233,0.0,0.0,36,0.00,,,0.00,VWS V15.00,2013-12-29 05:01:00,
2013-12-29 00:02:00,42.5,17.5,30.00,SW,233,0.0,0.0,36,0.00,,,0.00,VWS V15.00,2013-12-29 05:02:00,
2013-12-29 00:03:00,42.5,17.5,30.00,SW,233,0.0,0.0,36,0.00,,,0.00,VWS V15.00,2013-12-29 05:03:00,
2013-12-29 00:06:00,42.5,17.5,30.00,SW,233,0.0,0.0,36,0.00,,,0.00,VWS V15.00,2013-12-29 05:06:00,
2013-12-29 00:11:00,42.5,17.5,30.00,SW,233,0.0,0.0,36,0.00,,,0.00,VWS V15.00,2013-12-29 05:11:00,
2013-12-29 00:16:00,42.5,17.5,30.00,SW,233,0.0,0.0,36,0.00,,,0.00,VWS V15.00,2013-12-29 05:16:00,
2013-12-29 00:18:00,42.4,17.3,30.00,SW,233,0.0,0.0,36,0.00,,,0.00,VWS V15.00,2013-12-29 05:18:00,
2013-12-29 00:23:00,42.2,17.2,29.97,SW,233,0.0,0.0,36,0.00,,,0.00,VWS V15.00,2013-12-29 05:23:00,
2013-12-29 00:28:00,42.0,17.0,29.97,SW,233,0.0,0.0,36,0.00,,,0.00,VWS V15.00,2013-12-29 05:28:00,
2013-12-29 00:33:00,42.0,17.6,29.97,SW,233,0.0,0.0,37,0.00,,,0.00,VWS V15.00,2013-12-29 05:33:00,
2013-12-29 00:38:00,41.6,17.3,29.97,SW,233,0.0,0.0,37,0.00,,,0.00,VWS V15.00,2013-12-29 05:38:00,
2013-12-29 00:43:00,41.5,17.8,29.97,SW,233,0.0,0.0,38,0.00,,,0.00,VWS V15.00,2013-12-29 05:43:00,
2013-12-29 00:48:00,41.3,17.6,29.97,SW,233,0.0,0.0,38,0.00,,,0.00,VWS V15.00,2013-12-29 05:48:00,
2013-12-29 00:53:00,41.3,18.2,29.97,SW,233,0.0,0.0,39,0.00,,,0.00,VWS V15.00,2013-12-29 05:53:00,
2013-12-29 00:58:00,41.5,18.4,29.97,SW,233,0.0,0.0,39,0.00,,,0.00,VWS V15.00,2013-12-29 05:58:00,
2013-12-29 01:03:00,41.5,18.4,29.97,SW,233,0.0,0.0,39,0.00,,,0.00,VWS V15.00,2013-12-29 06:03:00,
2013-12-29 01:08:00,41.6,18.5,29.97,SW,233,0.0,0.0,39,0.00,,,0.00,VWS V15.00,2013-12-29 06:08:00,
2013-12-29 01:13:00,41.8,18.7,29.97,SW,233,0.0,0.0,39,0.00,,,0.00,VWS V15.00,2013-12-29 06:13:00,
2013-12-29 01:18:00,41.8,18.7,29.97,SW,233,0.0,0.0,39,0.00,,,0.00,VWS V15.00,2013-12-29 06:18:00,
2013-12-29 01:23:00,41.6,18.5,29.97,SW,233,0.0,0.0,39,0.00,,,0.00,VWS V15.00,2013-12-29 06:23:00,
2013-12-29 01:28:00,41.3,18.2,29.97,SW,233,0.0,0.0,39,0.00,,,0.00,VWS V15.00,2013-12-29 06:28:00,
2013-12-29 01:33:00,41.3,18.8,29.97,SW,233,0.0,0.0,40,0.00,,,0.00,VWS V15.00,2013-12-29 06:33:00,
2013-12-29 01:38:00,41.1,18.6,29.97,SW,233,0.0,0.0,40,0.00,,,0.00,VWS V15.00,2013-12-29 06:38:00,
2013-12-29 01:43:00,40.9,19.0,29.97,SW,233,0.0,0.0,41,0.00,,,0.00,VWS V15.00,2013-12-29 06:43:00,
2013-12-29 01:49:00,40.9,19.0,29.97,SW,233,0.0,0.0,41,0.00,,,0.00,VWS V15.00,2013-12-29 06:49:00,
2013-12-29 01:54:00,41.1,19.8,29.97,SW,233,0.0,0.0,42,0.00,,,0.00,VWS V15.00,2013-12-29 06:54:00,
2013-12-29 01:59:00,41.3,19.9,29.97,SW,233,0.0,0.0,42,0.00,,,0.00,VWS V15.00,2013-12-29 06:59:00,
2013-12-29 02:04:00,41.5,20.1,29.97,SW,233,0.0,0.0,42,0.00,,,0.00,VWS V15.00,2013-12-29 07:04:00,
2013-12-29 02:09:00,41.5,20.1,30.00,SW,233,0.0,0.0,42,0.00,,,0.00,VWS V15.00,2013-12-29 07:09:00,
2013-12-29 02:14:00,41.5,20.1,30.00,SW,233,0.0,0.0,42,0.00,,,0.00,VWS V15.00,2013-12-29 07:14:00,
2013-12-29 02:19:00,41.3,20.5,30.00,SW,233,0.0,0.0,43,0.00,,,0.00,VWS V15.00,2013-12-29 07:19:00,
2013-12-29 02:24:00,41.3,20.5,30.00,SW,233,0.0,0.0,43,0.00,,,0.00,VWS V15.00,2013-12-29 07:24:00,
2013-12-29 02:29:00,41.1,20.3,30.00,SW,233,0.0,0.0,43,0.00,,,0.00,VWS V15.00,2013-12-29 07:29:00,
2013-12-29 02:34:00,40.9,20.2,30.00,SW,233,0.0,0.0,43,0.00,,,0.00,VWS V15.00,2013-12-29 07:34:00,
2013-12-29 02:39:00,40.9,20.2,29.97,SW,233,0.0,0.0,43,0.00,,,0.00,VWS V15.00,2013-12-29 07:39:00,
2013-12-29 02:44:00,40.7,20.0,29.97,SW,233,0.0,0.0,43,0.00,,,0.00,VWS V15.00,2013-12-29 07:44:00,
2013-12-29 02:49:00,40.6,19.8,29.97,SW,233,0.0,0.0,43,0.00,,,0.00,VWS V15.00,2013-12-29 07:49:00,
2013-12-29 02:54:00,40.6,19.8,29.97,SW,233,0.0,0.0,43,0.00,,,0.00,VWS V15.00,2013-12-29 07:54:00,
2013-12-29 02:59:00,40.6,19.8,29.97,SW,233,0.0,0.0,43,0.00,,,0.00,VWS V15.00,2013-12-29 07:59:00,
2013-12-29 03:04:00,40.6,19.8,29.97,SW,233,0.0,0.0,43,0.00,,,0.00,VWS V15.00,2013-12-29 08:04:00,
2013-12-29 03:09:00,40.6,19.8,29.97,SW,233,0.0,0.0,43,0.00,,,0.00,VWS V15.00,2013-12-29 08:09:00,
2013-12-29 03:14:00,40.6,19.8,29.97,SW,233,0.0,0.0,43,0.00,,,0.00,VWS V15.00,2013-12-29 08:14:00,
2013-12-29 03:19:00,40.4,20.2,29.97,SW,233,0.0,0.0,44,0.00,,,0.00,VWS V15.00,2013-12-29 08:19:00,
2013-12-29 03:24:00,40.4,20.2,29.97,SW,233,0.0,0.0,44,0.00,,,0.00,VWS V15.00,2013-12-29 08:24:00,
2013-12-29 03:29:00,40.6,20.4,29.97,SW,233,0.0,0.0,44,0.00,,,0.00,VWS V15.00,2013-12-29 08:29:00,
2013-12-29 03:34:00,40.7,20.5,29.97,SW,233,0.0,0.0,44,0.00,,,0.00,VWS V15.00,2013-12-29 08:34:00,
2013-12-29 03:39:00,40.7,20.5,29.94,SW,233,0.0,0.0,44,0.00,,,0.00,VWS V15.00,2013-12-29 08:39:00,
2013-12-29 03:44:00,40.7,20.5,29.94,SW,233,0.0,0.0,44,0.00,,,0.00,VWS V15.00,2013-12-29 08:44:00,
2013-12-29 03:49:00,40.7,20.5,29.94,SW,233,0.0,0.0,44,0.00,,,0.00,VWS V15.00,2013-12-29 08:49:00,
2013-12-29 03:54:00,40.6,20.4,29.94,SW,233,0.0,0.0,44,0.00,,,0.00,VWS V15.00,2013-12-29 08:54:00,
2013-12-29 03:59:00,40.6,20.4,29.94,SW,233,0.0,0.0,44,0.00,,,0.00,VWS V15.00,2013-12-29 08:59:00,
2013-12-29 04:05:00,40.4,20.2,29.94,SW,233,0.0,0.0,44,0.00,,,0.00,VWS V15.00,2013-12-29 09:05:00,
2013-12-29 04:10:00,40.4,20.2,29.94,SW,233,0.0,0.0,44,0.00,,,0.00,VWS V15.00,2013-12-29 09:10:00,
2013-12-29 04:15:00,40.4,20.2,29.94,SW,233,0.0,0.0,44,0.00,,,0.00,VWS V15.00,2013-12-29 09:15:00,
2013-12-29 04:20:00,40.6,20.4,29.94,SW,233,0.0,0.0,44,0.00,,,0.00,VWS V15.00,2013-12-29 09:20:00,
2013-12-29 04:25:00,40.6,20.4,29.94,SW,233,0.0,0.0,44,0.00,,,0.00,VWS V15.00,2013-12-29 09:25:00,
2013-12-29 04:30:00,40.6,20.4,29.94,SW,233,0.0,0.0,44,0.00,,,0.00,VWS V15.00,2013-12-29 09:30:00,
2013-12-29 04:35:00,40.6,20.9,29.94,SW,233,0.0,0.0,45,0.00,,,0.00,VWS V15.00,2013-12-29 09:35:00,
2013-12-29 04:40:00,40.7,21.1,29.94,SW,233,0.0,0.0,45,0.00,,,0.00,VWS V15.00,2013-12-29 09:40:00,
2013-12-29 04:45:00,40.7,21.1,29.94,SW,233,0.0,0.0,45,0.00,,,0.00,VWS V15.00,2013-12-29 09:45:00,
2013-12-29 04:50:00,40.9,20.7,29.94,SW,233,0.0,0.0,44,0.00,,,0.00,VWS V15.00,2013-12-29 09:50:00,
2013-12-29 04:55:00,41.3,21.0,29.94,SW,233,0.0,0.0,44,0.00,,,0.00,VWS V15.00,2013-12-29 09:55:00,
2013-12-29 05:00:00,41.3,21.0,29.94,SW,233,0.0,0.0,44,0.00,,,0.00,VWS V15.00,2013-12-29 10:00:00,
2013-12-29 05:05:00,41.3,21.0,29.94,SW,233,0.0,0.0,44,0.00,,,0.00,VWS V15.00,2013-12-29 10:05:00,
2013-12-29 05:10:00,41.5,21.2,29.94,SW,233,0.0,0.0,44,0.00,,,0.00,VWS V15.00,2013-12-29 10:10:00,
2013-12-29 05:15:00,41.5,21.2,29.94,SW,233,0.0,0.0,44,0.00,,,0.00,VWS V15.00,2013-12-29 10:15:00,
2013-12-29 05:20:00,41.6,21.4,29.94,SW,233,0.0,0.0,44,0.00,,,0.00,VWS V15.00,2013-12-29 10:20:00,
2013-12-29 05:25:00,41.6,21.4,29.94,SW,233,0.0,0.0,44,0.00,,,0.00,VWS V15.00,2013-12-29 10:25:00,
2013-12-29 05:30:00,41.8,21.5,29.94,SW,233,0.0,0.0,44,0.00,,,0.00,VWS V15.00,2013-12-29 10:30:00,
2013-12-29 05:35:00,42.0,21.1,29.94,SW,233,0.0,0.0,43,0.00,,,0.00,VWS V15.00,2013-12-29 10:35:00,
2013-12-29 05:40:00,42.2,21.3,29.91,SW,233,0.0,0.0,43,0.00,,,0.00,VWS V15.00,2013-12-29 10:40:00,
2013-12-29 05:45:00,42.2,21.3,29.91,SW,233,0.0,0.0,43,0.00,,,0.00,VWS V15.00,2013-12-29 10:45:00,
2013-12-29 05:50:00,42.2,21.3,29.91,SW,233,0.0,0.0,43,0.00,,,0.00,VWS V15.00,2013-12-29 10:50:00,
2013-12-29 05:55:00,42.4,21.5,29.91,SW,233,0.0,0.0,43,0.00,,,0.00,VWS V15.00,2013-12-29 10:55:00,
2013-12-29 06:00:00,42.5,21.6,29.91,SW,233,0.0,0.0,43,0.00,,,0.00,VWS V15.00,2013-12-29 11:00:00,
2013-12-29 06:05:00,42.5,21.6,29.91,SW,233,0.0,0.0,43,0.00,,,0.00,VWS V15.00,2013-12-29 11:05:00,
2013-12-29 06:10:00,42.5,21.6,29.91,SW,233,0.0,0.0,43,0.00,,,0.00,VWS V15.00,2013-12-29 11:10:00,
2013-12-29 06:15:00,42.5,21.6,29.91,SW,233,0.0,0.0,43,0.00,,,0.00,VWS V15.00,2013-12-29 11:15:00,
2013-12-29 06:21:00,42.5,21.1,29.91,SW,233,0.0,0.0,42,0.00,,,0.00,VWS V15.00,2013-12-29 11:21:00,
2013-12-29 06:26:00,42.7,21.2,29.94,SW,233,0.0,0.0,42,0.00,,,0.00,VWS V15.00,2013-12-29 11:26:00,
2013-12-29 06:31:00,42.7,21.2,29.94,SW,233,0.0,0.0,42,0.00,,,0.00,VWS V15.00,2013-12-29 11:31:00,
2013-12-29 06:36:00,42.9,21.4,29.94,SW,233,0.0,0.0,42,0.00,,,0.00,VWS V15.00,2013-12-29 11:36:00,
2013-12-29 06:41:00,43.3,21.7,29.91,SW,233,0.0,0.0,42,0.00,,,0.00,VWS V15.00,2013-12-29 11:41:00,
2013-12-29 06:46:00,43.3,21.7,29.91,SW,233,0.0,0.0,42,0.00,,,0.00,VWS V15.00,2013-12-29 11:46:00,
2013-12-29 06:51:00,43.3,21.7,29.91,SW,233,0.0,0.0,42,0.00,,,0.00,VWS V15.00,2013-12-29 11:51:00,
2013-12-29 06:56:00,43.4,21.9,29.91,SW,233,0.0,0.0,42,0.00,,,0.00,VWS V15.00,2013-12-29 11:56:00,
2013-12-29 07:01:00,43.4,21.9,29.91,SW,235,0.0,2.7,42,0.00,,,0.00,VWS V15.00,2013-12-29 12:01:00,
2013-12-29 07:06:00,43.4,21.9,29.94,South,172,2.7,2.7,42,0.00,,,0.00,VWS V15.00,2013-12-29 12:06:00,
2013-12-29 07:11:00,43.4,21.9,29.94,SSW,211,4.0,4.0,42,0.00,,,0.00,VWS V15.00,2013-12-29 12:11:00,
2013-12-29 07:16:00,43.6,22.1,29.94,South,175,0.0,0.0,42,0.00,,,0.00,VWS V15.00,2013-12-29 12:16:00,
2013-12-29 07:21:00,43.6,22.1,29.91,WSW,237,0.0,0.0,42,0.00,,,0.00,VWS V15.00,2013-12-29 12:21:00,
2013-12-29 07:26:00,43.8,21.6,29.91,SW,214,3.1,3.1,41,0.00,,,0.00,VWS V15.00,2013-12-29 12:26:00,
2013-12-29 07:31:00,43.8,21.6,29.91,SW,221,0.0,0.0,41,0.00,,,0.00,VWS V15.00,2013-12-29 12:31:00,
2013-12-29 07:36:00,44.0,21.8,29.91,SW,221,0.0,0.0,41,0.00,,,0.00,VWS V15.00,2013-12-29 12:36:00,
2013-12-29 07:41:00,44.0,21.8,29.91,SW,221,0.0,0.0,41,0.00,,,0.00,VWS V15.00,2013-12-29 12:41:00,
2013-12-29 07:46:00,44.0,21.8,29.91,SW,221,0.0,0.0,41,0.00,,,0.00,VWS V15.00,2013-12-29 12:46:00,
2013-12-29 07:51:00,44.2,21.4,29.94,SW,221,0.0,0.0,40,0.00,,,0.00,VWS V15.00,2013-12-29 12:51:00,
2013-12-29 07:56:00,44.3,21.5,29.94,SW,221,0.0,0.0,40,0.00,,,0.00,VWS V15.00,2013-12-29 12:56:00,
2013-12-29 08:02:00,44.3,21.5,29.94,SW,221,0.0,0.0,40,0.00,,,0.00,VWS V15.00,2013-12-29 13:02:00,
2013-12-29 08:07:00,44.5,21.7,29.94,SW,221,0.0,0.0,40,0.00,,,0.00,VWS V15.00,2013-12-29 13:07:00,
2013-12-29 08:12:00,44.7,23.0,29.94,SW,235,2.2,3.1,42,0.00,,,0.00,VWS V15.00,2013-12-29 13:12:00,
2013-12-29 08:17:00,45.1,23.4,29.94,SW,232,3.6,5.8,42,0.00,,,0.00,VWS V15.00,2013-12-29 13:17:00,
2013-12-29 08:22:00,45.4,24.8,29.94,SSW,211,4.0,5.4,44,0.00,,,0.00,VWS V15.00,2013-12-29 13:22:00,
2013-12-29 08:27:00,45.2,25.2,29.94,SSW,199,0.0,0.0,45,0.00,,,0.00,VWS V15.00,2013-12-29 13:27:00,
2013-12-29 08:32:00,44.9,24.8,29.94,SW,214,0.0,0.0,45,0.00,,,0.00,VWS V15.00,2013-12-29 13:32:00,
2013-12-29 08:37:00,44.5,25.6,29.94,SW,214,0.0,0.0,47,0.00,,,0.00,VWS V15.00,2013-12-29 13:37:00,
2013-12-29 08:42:00,44.0,25.6,29.94,SW,222,0.0,0.0,48,0.00,,,0.00,VWS V15.00,2013-12-29 13:42:00,
2013-12-29 08:47:00,43.8,26.4,29.94,SW,222,0.0,0.0,50,0.00,,,0.00,VWS V15.00,2013-12-29 13:47:00,
2013-12-29 08:53:00,43.4,27.0,29.94,SW,222,0.0,0.0,52,0.00,,,0.00,VWS V15.00,2013-12-29 13:53:00,
2013-12-29 08:58:00,43.1,27.1,29.94,SW,222,0.0,0.0,53,0.00,,,0.00,VWS V15.00,2013-12-29 13:58:00,
2013-12-29 09:03:00,42.7,27.2,29.94,SW,222,0.0,0.0,54,0.00,,,0.00,VWS V15.00,2013-12-29 14:03:00,
2013-12-29 09:08:00,42.7,27.7,29.94,SW,222,0.0,0.0,55,0.04,,,0.04,VWS V15.00,2013-12-29 14:08:00,
2013-12-29 09:13:00,42.5,27.5,29.94,SW,222,0.0,0.0,55,0.04,,,0.04,VWS V15.00,2013-12-29 14:13:00,
2013-12-29 09:18:00,42.2,27.6,29.94,SW,222,0.0,0.0,56,0.04,,,0.04,VWS V15.00,2013-12-29 14:18:00,
2013-12-29 09:23:00,42.2,28.1,29.91,SW,222,0.0,0.0,57,0.04,,,0.04,VWS V15.00,2013-12-29 14:23:00,
2013-12-29 09:28:00,42.2,28.9,29.91,SW,222,0.0,0.0,59,0.04,,,0.04,VWS V15.00,2013-12-29 14:28:00,
2013-12-29 09:33:00,42.2,29.3,29.91,SW,222,0.0,0.0,60,0.04,,,0.04,VWS V15.00,2013-12-29 14:33:00,
2013-12-29 09:38:00,42.2,29.7,29.91,SW,222,0.0,0.0,61,0.04,,,0.04,VWS V15.00,2013-12-29 14:38:00,
2013-12-29 09:43:00,42.2,30.5,29.91,SW,222,0.0,0.0,63,0.08,,,0.08,VWS V15.00,2013-12-29 14:43:00,
2013-12-29 09:48:00,42.2,30.9,29.91,SW,222,0.0,0.0,64,0.08,,,0.08,VWS V15.00,2013-12-29 14:48:00,
2013-12-29 09:53:00,42.4,31.5,29.88,SW,222,0.0,0.0,65,0.08,,,0.08,VWS V15.00,2013-12-29 14:53:00,
2013-12-29 09:58:00,42.4,31.8,29.88,SW,222,0.0,0.0,66,0.08,,,0.08,VWS V15.00,2013-12-29 14:58:00,
2013-12-29 10:03:00,42.4,32.2,29.88,SW,222,0.0,0.0,67,0.12,,,0.12,VWS V15.00,2013-12-29 15:03:00,
2013-12-29 10:08:00,42.4,32.2,29.85,SW,222,0.0,0.0,67,0.08,,,0.12,VWS V15.00,2013-12-29 15:08:00,
2013-12-29 10:13:00,42.2,32.8,29.85,SW,219,0.0,0.0,69,0.08,,,0.12,VWS V15.00,2013-12-29 15:13:00,
2013-12-29 10:18:00,42.2,33.1,29.85,SW,219,0.0,0.0,70,0.08,,,0.12,VWS V15.00,2013-12-29 15:18:00,
2013-12-29 10:23:00,42.4,33.6,29.85,SW,219,0.0,0.0,71,0.08,,,0.12,VWS V15.00,2013-12-29 15:23:00,
2013-12-29 10:28:00,42.4,34.0,29.85,SW,219,0.0,0.0,72,0.08,,,0.12,VWS V15.00,2013-12-29 15:28:00,
2013-12-29 10:33:00,42.5,34.5,29.85,SW,219,0.0,0.0,73,0.08,,,0.12,VWS V15.00,2013-12-29 15:33:00,
2013-12-29 10:38:00,42.5,34.5,29.83,SW,219,0.0,0.0,73,0.08,,,0.12,VWS V15.00,2013-12-29 15:38:00,
2013-12-29 10:44:00,42.5,34.5,29.83,SW,219,0.0,0.0,73,0.04,,,0.12,VWS V15.00,2013-12-29 15:44:00,
2013-12-29 10:49:00,42.7,35.0,29.83,SW,219,0.0,0.0,74,0.04,,,0.12,VWS V15.00,2013-12-29 15:49:00,
2013-12-29 10:54:00,42.7,35.0,29.80,East,82,0.0,0.0,74,0.08,,,0.16,VWS V15.00,2013-12-29 15:54:00,
2013-12-29 10:59:00,42.7,35.4,29.80,East,85,0.0,0.0,75,0.08,,,0.16,VWS V15.00,2013-12-29 15:59:00,
2013-12-29 11:04:00,42.7,35.4,29.80,East,85,0.0,0.0,75,0.04,,,0.16,VWS V15.00,2013-12-29 16:04:00,
2013-12-29 11:09:00,42.7,35.4,29.80,East,85,0.0,0.0,75,0.04,,,0.16,VWS V15.00,2013-12-29 16:09:00,
2013-12-29 11:14:00,42.9,35.9,29.80,ENE,64,3.6,3.6,76,0.08,,,0.20,VWS V15.00,2013-12-29 16:14:00,
2013-12-29 11:19:00,42.7,36.0,29.80,ENE,64,0.0,0.0,77,0.08,,,0.20,VWS V15.00,2013-12-29 16:19:00,
2013-12-29 11:24:00,42.9,36.2,29.77,ENE,66,3.1,4.0,77,0.08,,,0.20,VWS V15.00,2013-12-29 16:24:00,
2013-12-29 11:29:00,42.9,36.5,29.77,ENE,65,3.1,3.1,78,0.08,,,0.20,VWS V15.00,2013-12-29 16:29:00,
2013-12-29 11:34:00,42.9,36.8,29.77,ENE,59,3.1,3.6,79,0.08,,,0.20,VWS V15.00,2013-12-29 16:34:00,
2013-12-29 11:39:00,42.9,36.8,29.74,ENE,59,2.7,2.7,79,0.08,,,0.20,VWS V15.00,2013-12-29 16:39:00,
2013-12-29 11:44:00,43.1,37.3,29.74,ENE,60,4.0,4.0,80,0.08,,,0.20,VWS V15.00,2013-12-29 16:44:00,
2013-12-29 11:49:00,43.1,37.3,29.74,East,88,0.0,0.0,80,0.12,,,0.24,VWS V15.00,2013-12-29 16:49:00,
2013-12-29 11:54:00,43.1,37.7,29.74,East,88,0.0,0.0,81,0.08,,,0.24,VWS V15.00,2013-12-29 16:54:00,
2013-12-29 11:59:00,43.1,37.7,29.74,ENE,72,2.7,2.7,81,0.08,,,0.24,VWS V15.00,2013-12-29 16:59:00,
2013-12-29 12:04:00,43.3,37.8,29.74,East,85,0.0,0.0,81,0.08,,,0.24,VWS V15.00,2013-12-29 17:04:00,
2013-12-29 12:09:00,43.3,38.1,29.71,East,87,0.0,0.0,82,0.16,,,0.31,VWS V15.00,2013-12-29 17:09:00,
2013-12-29 12:14:00,43.4,38.3,29.71,East,92,0.0,0.0,82,0.12,,,0.31,VWS V15.00,2013-12-29 17:14:00,
2013-12-29 12:19:00,43.4,38.3,29.71,East,84,0.0,0.0,82,0.12,,,0.31,VWS V15.00,2013-12-29 17:19:00,
2013-12-29 12:24:00,43.6,38.8,29.71,ENE,69,0.0,0.0,83,0.12,,,0.31,VWS V15.00,2013-12-29 17:24:00,
2013-12-29 12:29:00,43.8,39.0,29.71,NE,45,4.0,4.0,83,0.16,,,0.35,VWS V15.00,2013-12-29 17:29:00,
2013-12-29 12:34:00,43.8,39.3,29.71,ENE,65,4.0,4.0,84,0.16,,,0.35,VWS V15.00,2013-12-29 17:34:00,
2013-12-29 12:39:00,44.0,39.8,29.68,East,89,3.1,4.0,85,0.16,,,0.35,VWS V15.00,2013-12-29 17:39:00,
2013-12-29 12:44:00,44.2,40.2,29.68,ENE,70,2.7,2.7,86,0.20,,,0.39,VWS V15.00,2013-12-29 17:44:00,
2013-12-29 12:49:00,44.3,40.4,29.68,East,83,0.0,2.2,86,0.16,,,0.39,VWS V15.00,2013-12-29 17:49:00,
2013-12-29 12:54:00,44.5,40.9,29.65,ENE,58,3.6,4.9,87,0.16,,,0.39,VWS V15.00,2013-12-29 17:54:00,
2013-12-29 12:59:00,44.9,41.5,29.65,NE,35,4.0,4.0,88,0.16,,,0.39,VWS V15.00,2013-12-29 17:59:00,
2013-12-29 13:04:00,45.1,41.7,29.65,SSE,153,3.1,3.6,88,0.20,,,0.43,VWS V15.00,2013-12-29 18:04:00,
2013-12-29 13:10:00,45.4,42.4,29.62,SE,126,0.0,0.0,89,0.12,,,0.43,VWS V15.00,2013-12-29 18:10:00,
2013-12-29 13:15:00,45.6,42.5,29.62,ENE,64,4.0,4.0,89,0.12,,,0.43,VWS V15.00,2013-12-29 18:15:00,
2013-12-29 13:20:00,45.8,42.7,29.62,NE,35,2.7,2.7,89,0.16,,,0.47,VWS V15.00,2013-12-29 18:20:00,
2013-12-29 13:25:00,46.0,42.9,29.59,East,87,3.1,6.3,89,0.16,,,0.47,VWS V15.00,2013-12-29 18:25:00,
2013-12-29 13:30:00,46.3,43.5,29.59,East,87,3.6,4.9,90,0.12,,,0.47,VWS V15.00,2013-12-29 18:30:00,
2013-12-29 13:35:00,46.5,43.7,29.59,ESE,118,2.7,4.0,90,0.12,,,0.47,VWS V15.00,2013-12-29 18:35:00,
2013-12-29 13:40:00,46.5,43.7,29.56,SE,138,0.0,0.0,90,0.16,,,0.51,VWS V15.00,2013-12-29 18:40:00,
2013-12-29 13:45:00,46.7,44.2,29.56,East,82,3.6,3.6,91,0.12,,,0.51,VWS V15.00,2013-12-29 18:45:00,
2013-12-29 13:50:00,46.7,44.2,29.56,WSW,249,2.7,3.1,91,0.12,,,0.51,VWS V15.00,2013-12-29 18:50:00,
2013-12-29 13:55:00,46.9,44.4,29.53,SE,131,0.0,0.0,91,0.16,,,0.55,VWS V15.00,2013-12-29 18:55:00,
2013-12-29 14:00:00,47.0,44.8,29.53,ESE,115,0.0,0.0,92,0.16,,,0.55,VWS V15.00,2013-12-29 19:00:00,
2013-12-29 14:05:00,47.2,45.0,29.53,SSE,158,9.6,9.6,92,0.16,,,0.59,VWS V15.00,2013-12-29 19:05:00,
2013-12-29 14:10:00,47.4,45.5,29.53,East,95,5.4,5.4,93,0.16,,,0.59,VWS V15.00,2013-12-29 19:10:00,
2013-12-29 14:15:00,47.6,45.7,29.53,ESE,118,4.0,4.0,93,0.20,,,0.63,VWS V15.00,2013-12-29 19:15:00,
2013-12-29 14:20:00,47.6,45.7,29.53,East,96,2.7,2.7,93,0.20,,,0.67,VWS V15.00,2013-12-29 19:20:00,
2013-12-29 14:25:00,47.8,46.1,29.50,ENE,68,7.6,7.6,94,0.24,,,0.71,VWS V15.00,2013-12-29 19:25:00,
2013-12-29 14:30:00,47.8,46.1,29.50,East,85,5.4,5.4,94,0.24,,,0.71,VWS V15.00,2013-12-29 19:30:00,
2013-12-29 14:35:00,47.9,46.3,29.50,ENE,77,5.4,5.4,94,0.28,,,0.75,VWS V15.00,2013-12-29 19:35:00,
2013-12-29 14:40:00,47.9,46.6,29.47,East,100,4.0,6.3,95,0.28,,,0.79,VWS V15.00,2013-12-29 19:40:00,
2013-12-29 14:45:00,47.9,46.6,29.47,NNW,337,3.6,3.6,95,0.28,,,0.79,VWS V15.00,2013-12-29 19:45:00,
2013-12-29 14:50:00,48.3,46.9,29.47,ESE,106,5.4,5.8,95,0.28,,,0.79,VWS V15.00,2013-12-29 19:50:00,
2013-12-29 14:55:00,48.3,47.2,29.44,East,99,4.9,6.3,96,0.28,,,0.83,VWS V15.00,2013-12-29 19:55:00,
2013-12-29 15:00:00,48.3,47.2,29.44,ESE,102,4.0,5.4,96,0.31,,,0.87,VWS V15.00,2013-12-29 20:00:00,
2013-12-29 15:05:00,48.5,47.4,29.44,NE,50,3.1,4.9,96,0.28,,,0.87,VWS V15.00,2013-12-29 20:05:00,
2013-12-29 15:10:00,48.7,47.8,29.41,SSW,205,2.7,3.6,97,0.31,,,0.91,VWS V15.00,2013-12-29 20:10:00,
2013-12-29 15:15:00,48.8,48.0,29.41,ENE,78,4.0,4.9,97,0.31,,,0.94,VWS V15.00,2013-12-29 20:15:00,
2013-12-29 15:20:00,49.0,48.2,29.41,ENE,65,4.9,5.4,97,0.28,,,0.94,VWS V15.00,2013-12-29 20:20:00,
2013-12-29 15:26:00,49.0,48.2,29.38,NW,307,2.2,2.2,97,0.28,,,0.98,VWS V15.00,2013-12-29 20:26:00,
2013-12-29 15:31:00,49.2,48.4,29.38,East,83,2.7,2.7,97,0.28,,,0.98,VWS V15.00,2013-12-29 20:31:00,
2013-12-29 15:36:00,49.4,48.6,29.38,SE,127,0.0,0.0,97,0.28,,,1.02,VWS V15.00,2013-12-29 20:36:00,
2013-12-29 15:41:00,49.4,48.6,29.38,ENE,65,0.0,0.0,97,0.28,,,1.02,VWS V15.00,2013-12-29 20:41:00,
2013-12-29 15:46:00,49.6,49.0,29.38,ESE,108,0.0,0.0,98,0.31,,,1.10,VWS V15.00,2013-12-29 20:46:00,
2013-12-29 15:51:00,49.7,49.2,29.35,East,85,0.0,0.0,98,0.31,,,1.10,VWS V15.00,2013-12-29 20:51:00,
2013-12-29 15:56:00,49.9,49.4,29.35,East,92,0.0,0.0,98,0.28,,,1.10,VWS V15.00,2013-12-29 20:56:00,
2013-12-29 16:01:00,50.1,49.6,29.35,East,88,0.0,0.0,98,0.28,,,1.14,VWS V15.00,2013-12-29 21:01:00,
2013-12-29 16:06:00,50.8,50.5,29.32,SE,140,5.4,5.4,99,0.28,,,1.14,VWS V15.00,2013-12-29 21:06:00,
2013-12-29 16:11:00,52.1,51.8,29.32,SSE,155,4.0,7.6,99,0.24,,,1.14,VWS V15.00,2013-12-29 21:11:00,
2013-12-29 16:16:00,53.0,53.0,29.32,South,187,3.6,3.6,100,0.20,,,1.14,VWS V15.00,2013-12-29 21:16:00,
2013-12-29 16:21:00,54.8,54.8,29.32,South,180,9.2,9.2,100,0.20,,,1.14,VWS V15.00,2013-12-29 21:21:00,
2013-12-29 16:26:00,56.0,56.0,29.32,SSE,158,8.1,15.0,100,0.16,,,1.14,VWS V15.00,2013-12-29 21:26:00,
2013-12-29 16:31:00,57.7,57.7,29.32,SW,227,8.7,8.7,100,0.16,,,1.14,VWS V15.00,2013-12-29 21:31:00,
2013-12-29 16:36:00,58.6,58.6,29.32,WSW,248,9.2,11.0,100,0.12,,,1.14,VWS V15.00,2013-12-29 21:36:00,
2013-12-29 16:41:00,58.9,58.9,29.32,SW,235,3.6,12.3,100,0.12,,,1.14,VWS V15.00,2013-12-29 21:41:00,
2013-12-29 16:46:00,58.9,58.9,29.32,SW,217,5.4,5.4,100,0.04,,,1.14,VWS V15.00,2013-12-29 21:46:00,
2013-12-29 16:51:00,58.9,58.9,29.29,SSW,200,4.0,6.3,100,0.04,,,1.14,VWS V15.00,2013-12-29 21:51:00,
2013-12-29 16:56:00,58.7,58.7,29.29,SSW,207,0.0,3.6,100,0.08,,,1.18,VWS V15.00,2013-12-29 21:56:00,
2013-12-29 17:01:00,57.8,57.8,29.29,SW,221,3.1,4.5,100,0.04,,,1.18,VWS V15.00,2013-12-29 22:01:00,
2013-12-29 17:06:00,56.9,56.9,29.29,WSW,258,0.0,2.7,100,0.04,,,1.18,VWS V15.00,2013-12-29 22:06:00,
2013-12-29 17:11:00,56.0,56.0,29.29,WSW,244,5.8,5.8,100,0.04,,,1.18,VWS V15.00,2013-12-29 22:11:00,
2013-12-29 17:16:00,55.5,55.5,29.29,SSW,202,4.0,5.8,100,0.04,,,1.18,VWS V15.00,2013-12-29 22:16:00,
2013-12-29 17:21:00,55.3,55.3,29.29,SW,229,3.6,4.9,100,0.04,,,1.18,VWS V15.00,2013-12-29 22:21:00,
2013-12-29 17:26:00,55.3,55.3,29.29,WNW,287,3.6,5.4,100,0.04,,,1.18,VWS V15.00,2013-12-29 22:26:00,
2013-12-29 17:31:00,55.3,55.3,29.29,WSW,251,7.6,8.1,100,0.04,,,1.18,VWS V15.00,2013-12-29 22:31:00,
2013-12-29 17:36:00,55.3,55.3,29.29,SW,220,3.6,5.8,100,0.04,,,1.18,VWS V15.00,2013-12-29 22:36:00,
2013-12-29 17:41:00,55.1,55.1,29.29,SW,217,8.3,14.5,100,0.04,,,1.18,VWS V15.00,2013-12-29 22:41:00,
2013-12-29 17:47:00,55.0,55.0,29.29,West,272,3.1,8.1,100,0.04,,,1.18,VWS V15.00,2013-12-29 22:47:00,
2013-12-29 17:52:00,54.8,54.8,29.32,SW,214,5.4,9.2,100,0.04,,,1.18,VWS V15.00,2013-12-29 22:52:00,
2013-12-29 17:57:00,54.4,54.4,29.32,NW,318,4.0,5.4,100,0.00,,,1.18,VWS V15.00,2013-12-29 22:57:00,
2013-12-29 18:02:00,54.1,54.1,29.32,SSE,168,7.6,8.3,100,0.00,,,1.18,VWS V15.00,2013-12-29 23:02:00,
2013-12-29 18:07:00,54.1,54.1,29.32,WSW,252,6.3,9.6,100,0.00,,,1.18,VWS V15.00,2013-12-29 23:07:00,
2013-12-29 18:12:00,53.7,53.7,29.32,SW,228,8.7,10.5,100,0.00,,,1.18,VWS V15.00,2013-12-29 23:12:00,
2013-12-29 18:17:00,53.5,53.5,29.32,SW,222,5.4,6.3,100,0.00,,,1.18,VWS V15.00,2013-12-29 23:17:00,
2013-12-29 18:22:00,53.3,53.3,29.35,NNW,335,3.1,6.3,100,0.00,,,1.18,VWS V15.00,2013-12-29 23:22:00,
2013-12-29 18:27:00,53.0,53.0,29.35,West,277,7.2,11.0,100,0.00,,,1.18,VWS V15.00,2013-12-29 23:27:00,
2013-12-29 18:32:00,52.8,52.8,29.35,West,275,5.8,6.3,100,0.00,,,1.18,VWS V15.00,2013-12-29 23:32:00,
2013-12-29 18:37:00,52.4,52.4,29.35,West,276,5.4,12.3,100,0.00,,,1.18,VWS V15.00,2013-12-29 23:37:00,
2013-12-29 18:42:00,52.1,52.1,29.35,South,191,8.3,8.3,100,0.00,,,1.18,VWS V15.00,2013-12-29 23:42:00,
2013-12-29 18:47:00,51.9,51.9,29.35,WNW,302,3.1,10.5,100,0.00,,,1.18,VWS V15.00,2013-12-29 23:47:00,
2013-12-29 18:52:00,51.7,51.7,29.35,NNW,334,3.1,4.0,100,0.00,,,1.18,VWS V15.00,2013-12-29 23:52:00,
2013-12-29 18:57:00,51.4,51.4,29.35,NW,317,3.6,3.6,100,0.00,,,1.18,VWS V15.00,2013-12-29 23:57:00,
2013-12-29 19:02:00,50.8,50.5,29.35,West,276,7.6,7.6,99,0.00,,,1.18,VWS V15.00,2013-12-30 00:02:00,
2013-12-29 19:07:00,50.3,49.7,29.38,West,280,4.9,6.7,98,0.00,,,1.18,VWS V15.00,2013-12-30 00:07:00,
2013-12-29 19:12:00,49.9,49.1,29.38,NNW,336,4.9,4.9,97,0.00,,,1.18,VWS V15.00,2013-12-30 00:12:00,
2013-12-29 19:17:00,49.6,48.2,29.38,WNW,296,3.6,5.4,95,0.00,,,1.18,VWS V15.00,2013-12-30 00:17:00,
2013-12-29 19:22:00,49.2,47.3,29.41,WSW,252,2.2,2.2,93,0.00,,,1.18,VWS V15.00,2013-12-30 00:22:00,
2013-12-29 19:27:00,48.8,46.3,29.41,NNW,346,6.3,10.5,91,0.00,,,1.18,VWS V15.00,2013-12-30 00:27:00,
2013-12-29 19:32:00,48.3,45.5,29.41,NW,314,8.1,10.1,90,0.00,,,1.18,VWS V15.00,2013-12-30 00:32:00,
2013-12-29 19:37:00,47.8,44.1,29.41,WSW,241,7.6,8.7,87,0.00,,,1.18,VWS V15.00,2013-12-30 00:37:00,
2013-12-29 19:42:00,47.2,43.0,29.41,NW,324,2.7,3.6,85,0.00,,,1.18,VWS V15.00,2013-12-30 00:42:00,
2013-12-29 19:47:00,46.7,41.8,29.41,West,280,5.8,6.3,83,0.00,,,1.18,VWS V15.00,2013-12-30 00:47:00,
2013-12-29 19:52:00,46.3,41.1,29.44,NNE,33,7.6,8.7,82,0.00,,,1.18,VWS V15.00,2013-12-30 00:52:00,
2013-12-29 19:57:00,45.8,40.3,29.44,WNW,292,5.4,5.8,81,0.00,,,1.18,VWS V15.00,2013-12-30 00:57:00,
2013-12-29 20:02:00,45.6,40.1,29.44,West,266,8.7,8.7,81,0.00,,,1.18,VWS V15.00,2013-12-30 01:02:00,
2013-12-29 20:07:00,45.2,39.8,29.47,North,353,8.7,8.7,81,0.00,,,1.18,VWS V15.00,2013-12-30 01:07:00,
2013-12-29 20:13:00,44.9,39.4,29.47,NE,41,8.3,12.3,81,0.00,,,1.18,VWS V15.00,2013-12-30 01:13:00,
2013-12-29 20:18:00,44.7,38.9,29.47,NW,306,5.8,8.7,80,0.00,,,1.18,VWS V15.00,2013-12-30 01:18:00,
2013-12-29 20:23:00,44.3,38.2,29.47,WNW,286,6.3,6.3,79,0.00,,,1.18,VWS V15.00,2013-12-30 01:23:00,
2013-12-29 20:28:00,44.3,37.9,29.47,NNW,330,5.8,8.3,78,0.00,,,1.18,VWS V15.00,2013-12-30 01:28:00,
2013-12-29 20:33:00,44.2,37.1,29.47,NW,313,6.3,8.1,76,0.00,,,1.18,VWS V15.00,2013-12-30 01:33:00,
2013-12-29 20:38:00,44.0,36.6,29.50,WSW,241,7.6,15.0,75,0.00,,,1.18,VWS V15.00,2013-12-30 01:38:00,
2013-12-29 20:43:00,44.0,36.6,29.50,WNW,298,6.3,6.3,75,0.00,,,1.18,VWS V15.00,2013-12-30 01:43:00,
2013-12-29 20:48:00,43.8,36.4,29.50,NNW,345,6.3,6.3,75,0.00,,,0.00,VWS V15.00,2013-12-30 01:48:00,
2013-12-29 20:53:00,43.8,36.4,29.50,NNW,329,4.0,5.8,75,0.00,,,1.18,VWS V15.00,2013-12-30 01:53:00,
2013-12-29 20:58:00,43.8,36.4,29.50,NNW,338,3.6,5.4,75,0.00,,,1.18,VWS V15.00,2013-12-30 01:58:00,
2013-12-29 21:03:00,43.8,36.4,29.50,WNW,286,4.0,4.0,75,0.00,,,1.18,VWS V15.00,2013-12-30 02:03:00,
2013-12-29 21:08:00,43.6,36.2,29.53,WNW,286,5.8,5.8,75,0.00,,,1.18,VWS V15.00,2013-12-30 02:08:00,
2013-12-29 21:13:00,43.4,36.1,29.53,WNW,301,3.1,4.9,75,0.00,,,1.18,VWS V15.00,2013-12-30 02:13:00,
2013-12-29 21:18:00,43.3,35.5,29.53,WNW,287,4.0,4.0,74,0.00,,,1.18,VWS V15.00,2013-12-30 02:18:00,
2013-12-29 21:23:00,43.3,35.5,29.53,WSW,258,2.2,2.2,74,0.00,,,1.18,VWS V15.00,2013-12-30 02:23:00,
2013-12-29 21:28:00,43.1,35.4,29.53,WNW,293,4.0,4.0,74,0.00,,,1.18,VWS V15.00,2013-12-30 02:28:00,
2013-12-29 21:33:00,43.1,35.4,29.53,West,263,2.7,2.7,74,0.00,,,1.18,VWS V15.00,2013-12-30 02:33:00,
2013-12-29 21:38:00,43.1,35.4,29.56,SW,220,3.1,3.1,74,0.00,,,1.18,VWS V15.00,2013-12-30 02:38:00,
2013-12-29 21:43:00,42.9,35.2,29.56,WNW,299,2.7,2.7,74,0.00,,,1.18,VWS V15.00,2013-12-30 02:43:00,
2013-12-29 21:48:00,42.9,35.5,29.56,WNW,287,2.2,2.2,75,0.00,,,1.18,VWS V15.00,2013-12-30 02:48:00,
2013-12-29 21:53:00,42.7,35.4,29.56,SSW,209,0.0,0.0,75,0.00,,,1.18,VWS V15.00,2013-12-30 02:53:00,
2013-12-29 21:58:00,42.7,35.4,29.56,WNW,300,3.1,3.1,75,0.00,,,1.18,VWS V15.00,2013-12-30 02:58:00,
2013-12-29 22:03:00,42.5,35.2,29.56,WNW,303,2.7,2.7,75,0.00,,,1.18,VWS V15.00,2013-12-30 03:03:00,
2013-12-29 22:08:00,42.5,35.2,29.56,WNW,298,0.0,0.0,75,0.00,,,1.18,VWS V15.00,2013-12-30 03:08:00,
2013-12-29 22:13:00,42.4,35.0,29.56,WNW,298,0.0,0.0,75,0.00,,,1.18,VWS V15.00,2013-12-30 03:13:00,
2013-12-29 22:18:00,42.2,34.8,29.56,WSW,257,0.0,2.2,75,0.00,,,1.18,VWS V15.00,2013-12-30 03:18:00,
2013-12-29 22:23:00,42.2,34.8,29.59,West,278,2.7,3.1,75,0.00,,,1.18,VWS V15.00,2013-12-30 03:23:00,
2013-12-29 22:28:00,42.2,34.8,29.59,West,277,3.1,3.1,75,0.00,,,1.18,VWS V15.00,2013-12-30 03:28:00,
2013-12-29 22:34:00,42.2,34.8,29.59,West,280,4.0,4.0,75,0.00,,,1.18,VWS V15.00,2013-12-30 03:34:00,
2013-12-29 22:39:00,42.2,34.8,29.59,WNW,298,4.9,4.9,75,0.00,,,1.18,VWS V15.00,2013-12-30 03:39:00,
2013-12-29 22:44:00,42.2,34.8,29.59,WNW,288,3.6,3.6,75,0.00,,,1.18,VWS V15.00,2013-12-30 03:44:00,
2013-12-29 22:49:00,42.2,35.2,29.59,WNW,289,3.6,5.4,76,0.00,,,1.18,VWS V15.00,2013-12-30 03:49:00,
2013-12-29 22:54:00,42.2,34.8,29.62,WNW,286,2.2,3.6,75,0.00,,,1.18,VWS V15.00,2013-12-30 03:54:00,
2013-12-29 22:59:00,42.0,34.7,29.62,SW,234,2.2,4.9,75,0.00,,,1.18,VWS V15.00,2013-12-30 03:59:00,
2013-12-29 23:04:00,42.0,34.7,29.62,West,266,2.7,4.0,75,0.00,,,1.18,VWS V15.00,2013-12-30 04:04:00,
2013-12-29 23:09:00,42.0,34.7,29.62,SW,225,3.1,3.1,75,0.00,,,1.18,VWS V15.00,2013-12-30 04:09:00,
2013-12-29 23:14:00,41.8,34.8,29.62,WNW,288,2.2,4.0,76,0.00,,,1.18,VWS V15.00,2013-12-30 04:14:00,
2013-12-29 23:19:00,41.6,34.7,29.62,WNW,290,0.0,0.0,76,0.00,,,1.18,VWS V15.00,2013-12-30 04:19:00,
2013-12-29 23:24:00,41.6,34.7,29.62,WSW,256,0.0,0.0,76,0.00,,,1.18,VWS V15.00,2013-12-30 04:24:00,
2013-12-29 23:29:00,41.5,34.5,29.62,West,264,2.7,3.1,76,0.00,,,1.18,VWS V15.00,2013-12-30 04:29:00,
2013-12-29 23:34:00,41.5,34.5,29.62,NNW,330,3.6,3.6,76,0.00,,,1.18,VWS V15.00,2013-12-30 04:34:00,
2013-12-29 23:39:00,41.5,34.5,29.62,WNW,290,0.0,2.7,76,0.00,,,1.18,VWS V15.00,2013-12-30 04:39:00,
2013-12-29 23:44:00,41.5,34.5,29.62,WNW,293,3.1,3.6,76,0.00,,,1.18,VWS V15.00,2013-12-30 04:44:00,
2013-12-29 23:49:00,41.5,34.5,29.62,West,266,0.0,0.0,76,0.00,,,1.18,VWS V15.00,2013-12-30 04:49:00,
2013-12-29 23:54:00,41.3,34.3,29.62,SSW,202,0.0,0.0,76,0.00,,,1.18,VWS V15.00,2013-12-30 04:54:00,
2013-12-29 23:59:00,41.1,34.5,29.62,SW,218,3.1,4.0,77,0.00,,,1.18,VWS V15.00,2013-12-30 04:59:00,